Terminal Aerodrome Forecast
Issued by NWS Blacksburg, VA

Current Version | Previous Version | Text Only | Print | Product List | Glossary Off
Versions: 1 2 3 4 5 6 7 8 9 10 11 12 13 14 15 16 17 18 19 20 21 22 23 24 25 26 27 28 29 30 31 32 33 34 35 36 37 38 39 40 41

000
FTUS41 KRNK 301120
TAFBLF
TAF
KBLF 301120Z 3012/3112 00000KT P6SM SCT009 BKN050
      TEMPO 3012/3013 BKN009
     FM301700 31007KT P6SM BKN040
     FM302100 31009G19KT P6SM SCT050
     FM302300 30004KT P6SM SKC=

USA.gov is the U.S. government's official web portal to all federal, state and local government web resources and services.